Location: Devore Heights
(34.2372°N, 117.4156°W)
Time: 06:13:38
(UTC+00:00)

ARIANE 6 FM1 Upper Stage - Pass Details

Date: 19 August 2024
Orbit: 567 x 594 km, 62.0° (Epoch: 06 September)

Event Time Altitude Azimuth Distance (km) Brightness Sun altitude
Exits shadow 12:43:13 - 213° (SSW) 2,503 5.5 -6.9°
Reaches altitude 10° 12:44:46 10° 214° (SSW) 1,885 4.9 -6.6°
Maximum altitude 12:49:01 84° 301° (WNW) 591 2.7 -5.8°
Drops below altitude 10° 12:53:22 10° 31° (NNE) 1,914 6.2 -5.0°
Sets 12:55:38 0° 32° (NNE) 2,823 7.1 -4.5°
